TimeCDT,TemperatureF,Dew PointF,Humidity,Sea Level PressureIn,VisibilityMPH,Wind Direction,Wind SpeedMPH,Gust SpeedMPH,PrecipitationIn,Events,Conditions,WindDirDegrees,DateUTC
12:53 AM,55.0,46.0,72,30.11,10.0,SSE,11.5,20.7,N/A,,Clear,160,2013-09-17 05:53:00
1:53 AM,55.0,46.9,74,30.10,10.0,SSE,13.8,-,N/A,,Clear,160,2013-09-17 06:53:00
2:53 AM,54.0,46.9,77,30.09,10.0,SSE,10.4,20.7,N/A,,Clear,160,2013-09-17 07:53:00
3:53 AM,54.0,48.0,80,30.07,10.0,SSE,11.5,-,N/A,,Clear,160,2013-09-17 08:53:00
4:53 AM,54.0,48.0,80,30.05,10.0,SSE,15.0,21.9,N/A,,Clear,160,2013-09-17 09:53:00
5:53 AM,54.0,48.9,83,30.02,10.0,SSE,15.0,21.9,N/A,,Clear,160,2013-09-17 10:53:00
6:53 AM,54.0,48.9,83,30.01,10.0,SSE,12.7,-,N/A,,Mostly Cloudy,150,2013-09-17 11:53:00
7:53 AM,55.0,48.9,80,30.00,10.0,SSE,15.0,23.0,N/A,,Overcast,160,2013-09-17 12:53:00
8:53 AM,55.9,48.9,77,29.99,10.0,SSE,17.3,26.5,N/A,,Overcast,160,2013-09-17 13:53:00
9:53 AM,57.0,50.0,77,29.98,10.0,SSE,18.4,24.2,N/A,,Overcast,160,2013-09-17 14:53:00
10:53 AM,57.9,51.1,78,29.98,10.0,SSE,15.0,21.9,N/A,,Overcast,160,2013-09-17 15:53:00
11:40 AM,59.0,51.8,77,29.95,9.0,SSE,17.3,27.6,N/A,,Overcast,160,2013-09-17 16:40:00
11:53 AM,60.1,52.0,75,29.96,9.0,South,18.4,26.5,N/A,,Overcast,170,2013-09-17 16:53:00
12:53 PM,62.1,53.1,72,29.94,9.0,SSE,19.6,24.2,N/A,,Overcast,160,2013-09-17 17:53:00
1:53 PM,63.0,54.0,72,29.92,10.0,SSE,19.6,25.3,N/A,,Overcast,160,2013-09-17 18:53:00
2:53 PM,64.0,55.0,73,29.90,10.0,SSE,18.4,26.5,N/A,,Overcast,160,2013-09-17 19:53:00
3:53 PM,64.9,55.0,70,29.87,10.0,SSE,17.3,24.2,N/A,,Overcast,150,2013-09-17 20:53:00
4:53 PM,66.0,55.9,70,29.85,10.0,SSE,15.0,20.7,N/A,,Overcast,160,2013-09-17 21:53:00
5:13 PM,66.2,55.4,68,29.84,10.0,SSE,19.6,26.5,N/A,,Overcast,160,2013-09-17 22:13:00
5:53 PM,66.0,55.9,70,29.83,10.0,SSE,13.8,25.3,N/A,,Overcast,150,2013-09-17 22:53:00
6:04 PM,66.2,55.4,68,29.83,10.0,SSE,16.1,24.2,N/A,,Overcast,150,2013-09-17 23:04:00
6:30 PM,66.2,55.4,68,29.82,10.0,SSE,17.3,24.2,N/A,,Overcast,150,2013-09-17 23:30:00
6:43 PM,64.4,55.4,73,29.82,10.0,SSE,13.8,24.2,N/A,,Overcast,150,2013-09-17 23:43:00
6:53 PM,64.0,55.9,75,29.83,10.0,SSE,16.1,27.6,N/A,,Overcast,150,2013-09-17 23:53:00
7:53 PM,64.0,55.9,75,29.82,10.0,SSE,19.6,27.6,N/A,,Overcast,150,2013-09-18 00:53:00
8:20 PM,62.6,55.4,77,29.82,10.0,SSE,18.4,25.3,N/A,,Overcast,160,2013-09-18 01:20:00
8:53 PM,63.0,55.9,78,29.83,10.0,SSE,17.3,25.3,N/A,,Overcast,160,2013-09-18 01:53:00
9:53 PM,62.1,55.9,80,29.83,10.0,SSE,15.0,-,N/A,,Overcast,160,2013-09-18 02:53:00
10:53 PM,62.1,55.9,80,29.83,9.0,SSE,17.3,23.0,N/A,,Overcast,160,2013-09-18 03:53:00
11:53 PM,61.0,55.9,83,29.82,7.0,SSE,15.0,21.9,N/A,,Overcast,160,2013-09-18 04:53:00